Fontana Observed Data For Previous 48 Hours

Caption
Day and Hour Reservoir Elevation (behind dam)* Tailwater Elevation (below dam)* Average Hourly Discharge*
3/22/2019 2 AM EDT 1,670.03 1,279.62 6,915
3/22/2019 3 AM EDT 1,670.02 1,279.59 6,911
3/22/2019 4 AM EDT 1,670.00 1,279.65 6,902
3/22/2019 5 AM EDT 1,670.03 1,279.59 6,914
3/22/2019 6 AM EDT 1,670.02 1,279.63 6,916
3/22/2019 7 AM EDT 1,670.01 1,279.62 6,921
3/22/2019 8 AM EDT 1,670.01 1,279.63 6,919
3/22/2019 9 AM EDT 1,670.01 1,279.64 6,917
3/22/2019 10 AM EDT 1,670.00 1,279.61 6,922
3/22/2019 11 AM EDT 1,670.00 1,279.66 6,908
3/22/2019 12 PM EDT 1,670.00 1,279.60 6,899
3/22/2019 1 PM EDT 1,669.99 1,279.61 6,915
3/22/2019 2 PM EDT 1,670.01 1,279.65 6,914
3/22/2019 3 PM EDT 1,670.01 1,279.63 6,911
3/22/2019 4 PM EDT 1,670.02 1,279.59 6,905
3/22/2019 5 PM EDT 1,670.01 1,279.58 6,908
3/22/2019 6 PM EDT 1,670.00 1,279.58 6,905
3/22/2019 7 PM EDT 1,670.00 1,279.56 6,912
3/22/2019 8 PM EDT 1,670.02 1,279.61 6,894
3/22/2019 9 PM EDT 1,670.03 1,279.60 6,900
3/22/2019 10 PM EDT 1,670.00 1,279.59 6,909
3/22/2019 11 PM EDT 1,670.02 1,279.62 6,922
3/23/2019 12 AM EDT 1,670.02 1,279.60 6,909
3/23/2019 1 AM EDT 1,670.01 1,279.63 6,911
3/23/2019 2 AM EDT 1,670.01 1,279.58 6,903
3/23/2019 3 AM EDT 1,670.02 1,279.59 6,904
3/23/2019 4 AM EDT 1,670.02 1,279.58 6,901
3/23/2019 5 AM EDT 1,670.03 1,279.62 6,889
3/23/2019 6 AM EDT 1,670.03 1,279.61 6,905
3/23/2019 7 AM EDT 1,670.03 1,279.61 6,901
3/23/2019 8 AM EDT 1,670.03 1,279.63 6,903
3/23/2019 9 AM EDT 1,670.03 1,279.59 6,902
3/23/2019 10 AM EDT 1,670.03 1,279.62 6,905
3/23/2019 11 AM EDT 1,670.02 1,279.64 6,912
3/23/2019 12 PM EDT 1,670.02 1,279.60 6,898
3/23/2019 1 PM EDT 1,670.02 1,279.60 6,904
3/23/2019 2 PM EDT 1,670.01 1,279.58 6,913
3/23/2019 3 PM EDT 1,670.00 1,279.56 6,905
3/23/2019 4 PM EDT 1,670.00 1,279.60 6,908
3/23/2019 5 PM EDT 1,670.00 1,279.58 6,902
3/23/2019 6 PM EDT 1,669.99 1,279.57 6,902
3/23/2019 7 PM EDT 1,669.99 1,279.62 6,905
3/23/2019 8 PM EDT 1,669.99 1,279.53 6,899
3/23/2019 9 PM EDT 1,669.99 1,279.58 6,895
3/23/2019 10 PM EDT 1,669.99 1,279.61 6,902
3/23/2019 11 PM EDT 1,669.99 1,279.59 6,902
3/24/2019 12 AM EDT 1,669.99 1,279.60 6,904
3/24/2019 1 AM EDT 1,669.99 1,279.64 6,909

Elevations are in feet above sea level. Discharges are in cubic feet per second and are reported at the end of the hour.